This demonstration page uses our WeatherBlox Daily Observations layout. Learn more.

Hourly Observations for September 18, 2018

Temp ( °F °C ) Dew Point ( °F °C ) Humidity (%) Winds ( mph kmh ) Pressure ( in mb ) Visibility ( mi km ) Precip ( " mm )
12:15 am 00:15 Clear 73 23 66 19 78 78 SSE 8 13 29.83 1010 10 16.09344 0 0
12:35 am 00:35 Clear 73 22.9 66 19.1 79 79 S 8 13 29.83 1010 10 16.09344 0 0
12:55 am 00:55 Clear 73 22.6 66 19.1 81 81 S 8 13 29.83 1010 10 16.09344 0 0
1:15 am 01:15 Clear 72 22.2 67 19.2 83 83 S 5 7 29.85 1011 10 16.09344 0 0
1:35 am 01:35 Clear 71 21.8 67 19.2 85 85 S 6 9 29.85 1011 10 16.09344 0 0
1:55 am 01:55 Clear 71 21.8 67 19.3 86 86 S 7 11 29.85 1011 10 16.09344 0 0
2:15 am 02:15 Clear 71 21.5 67 19.3 87 87 S 7 11 29.85 1011 10 16.09344 0 0
2:35 am 02:35 Clear 70 21.1 67 19.2 89 89 S 6 9 29.85 1011 10 16.09344 0 0
2:55 am 02:55 Clear 69 20.8 67 19.2 91 91 S 7 11 29.83 1010 10 16.09344 0 0
3:15 am 03:15 Clear 69 20.8 67 19.2 91 91 S 7 11 29.83 1010 10 16.09344 0 0
3:35 am 03:35 Clear 69 20.8 66 19 90 90 S 10 17 29.83 1010 10 16.09344 0 0
3:55 am 03:55 Clear 70 21.1 66 19 88 88 S 8 13 29.83 1010 10 16.09344 0 0
4:15 am 04:15 Clear 70 21.1 66 19 88 88 SSE 5 7 29.83 1010 10 16.09344 0 0
4:35 am 04:35 Clear 70 20.9 66 18.7 87 87 Calm 29.83 1010 10 16.09344 0 0
4:55 am 04:55 Clear 69 20.8 66 18.7 88 88 S 5 7 29.83 1010 10 16.09344 0 0
5:15 am 05:15 Clear 69 20.8 66 18.7 88 88 S 5 7 29.83 1010 10 16.09344 0 0
5:35 am 05:35 Clear 68 20.1 65 18.5 91 91 S 7 11 29.83 1010 10 16.09344 0 0
5:55 am 05:55 Clear 69 20.4 65 18.6 89 89 S 5 7 29.83 1010 10 16.09344 0 0
6:15 am 06:15 Clear 68 20 65 18.6 92 92 S 6 9 29.83 1010 10 16.09344 0 0
6:35 am 06:35 Clear 68 20 65 18.6 92 92 S 3 6 29.83 1010 10 16.09344 0 0
6:55 am 06:55 Clear 69 20.3 66 18.9 92 92 S 9 15 29.83 1010 10 16.09344 0 0
7:15 am 07:15 Partly Cloudy 69 20.6 66 18.8 89 89 Calm 29.85 1011 10 16.09344 0 0
7:35 am 07:35 Partly Cloudy 68 20 65 18.6 92 92 Calm 29.85 1011 10 16.09344 0 0
7:55 am 07:55 Sunny 67 19.2 65 18.3 95 95 ESE 3 6 29.85 1011 10 16.09344 0 0
8:15 am 08:15 Sunny 67 19.7 66 19 96 96 ENE 3 6 29.85 1011 10 16.09344 0 0
8:35 am 08:35 Sunny 70 21.1 67 19.6 91 91 NE 5 7 29.85 1011 10 16.09344 0 0
8:55 am 08:55 Sunny 72 22.2 67 19.7 86 86 NE 6 9 29.85 1011 10 16.09344 0 0
9:15 am 09:15 Sunny 73 23 67 19.6 81 81 NE 7 11 29.83 1010 10 16.09344 0 0
9:35 am 09:35 Sunny 75 23.7 67 19.5 77 77 E 6 9 29.83 1010 10 16.09344 0 0
9:55 am 09:55 Sunny 76 24.3 67 19.3 74 74 E 5 7 29.83 1010 10 16.09344 0 0
10:15 am 10:15 Sunny 77 25 66 19 69 69 NNE 3 6 29.85 1011 10 16.09344 0 0
10:35 am 10:35 Sunny 78 25.6 67 19.3 68 68 N 10 17 29.85 1011 10 16.09344 0 0
10:55 am 10:55 Sunny 77 25 67 19.3 71 71 N 12 19 29.85 1011 10 16.09344 0 0
11:15 am 11:15 Sunny 75 24.1 66 18.8 72 72 NNE 13 20 29.85 1011 10 16.09344 0 0
11:35 am 11:35 Sunny 76 24.7 66 18.9 70 70 NE 10 17 29.85 1011 10 16.09344 0 0
11:55 am 11:55 Sunny 78 25.6 66 18.9 67 67 ENE 10 17 29.85 1011 10 16.09344 0 0
12:15 pm 12:15 Sunny 80 26.6 64 17.7 58 58 ENE 9 15 29.8 1009 10 16.09344 0 0
12:35 pm 12:35 Sunny 81 27.2 64 17.5 55 55 NE 15 24 29.8 1009 10 16.09344 0 0
12:55 pm 12:55 Sunny with Nearby Thunderstorms 81 27.2 62 16.9 53 53 ENE 14 22 29.8 1009 10 16.09344 0 0
1:15 pm 13:15 Sunny 82 27.9 62 16.6 50 50 ENE 17 28 29.8 1009 10 16.09344 0 0
1:35 pm 13:35 Sunny 83 28.2 61 16.2 48 48 ENE 16 26 29.8 1009 10 16.09344 0 0
1:55 pm 13:55 Sunny 84 28.7 61 16.3 47 47 E 14 22 29.8 1009 10 16.09344 0 0
2:15 pm 14:15 Sunny 84 28.9 62 16.6 47 47 ENE 13 20 29.8 1009 10 16.09344 0 0
2:35 pm 14:35 Sunny 85 29.2 62 16.8 47 47 ENE 15 24 29.77 1008 10 16.09344 0 0
2:55 pm 14:55 Sunny 86 29.8 62 16.9 46 46 E 15 24 29.71 1006 10 16.09344 0 0
3:15 pm 15:15 Sunny 86 29.8 63 17.4 47 47 E 15 24 29.71 1006 10 16.09344 0 0
3:35 pm 15:35 Sunny 85 29.6 64 17.8 49 49 E 15 24 29.71 1006 10 16.09344 0 0
3:55 pm 15:55 Sunny 86 30.1 65 18.3 49 49 ESE 15 24 29.71 1006 10 16.09344 0 0
4:15 pm 16:15 Sunny 86 30 66 18.9 51 51 E 13 20 29.71 1006 10 16.09344 0 0
4:35 pm 16:35 Sunny 86 30.2 67 19.4 52 52 ESE 13 20 29.68 1005 10 16.09344 0 0
4:55 pm 16:55 Sunny 87 30.5 67 19.7 52 52 ESE 13 20 29.68 1005 10 16.09344 0 0
5:15 pm 17:15 Sunny 87 30.5 68 20.1 54 54 E 12 19 29.68 1005 10 16.09344 0 0
5:35 pm 17:35 Sunny 87 30.5 68 20.2 54 54 E 10 17 29.68 1005 10 16.09344 0 0
5:55 pm 17:55 Sunny 87 30.6 68 20.1 53 53 E 10 17 29.68 1005 10 16.09344 0 0
6:15 pm 18:15 Sunny 87 30.6 67 19.6 52 52 ESE 7 11 29.68 1005 10 16.09344 0 0
6:35 pm 18:35 Sunny 87 30.5 67 19.7 52 52 ESE 8 13 29.68 1005 10 16.09344 0 0
6:55 pm 18:55 Sunny 85 29.7 68 19.8 55 55 E 10 17 29.68 1005 10 16.09344 0 0
7:15 pm 19:15 Sunny 84 28.9 68 20 59 59 E 8 13 29.71 1006 10 16.09344 0 0
7:35 pm 19:35 Sunny 82 27.9 70 20.9 66 66 E 12 19 29.71 1006 10 16.09344 0 0
7:55 pm 19:55 Clear 80 26.4 70 21 72 72 E 14 22 29.71 1006 10 16.09344 0 0
8:15 pm 20:15 Clear 77 25.1 69 20.3 75 75 E 18 30 29.74 1007 10 16.09344 0 0
8:35 pm 20:35 Clear 75 24 68 19.8 77 77 E 18 30 29.77 1008 10 16.09344 0 0
8:55 pm 20:55 Clear 74 23.1 67 19.5 80 80 E 15 24 29.77 1008 10 16.09344 0 0
9:15 pm 21:15 Clear 72 22.2 67 19.6 85 85 E 13 20 29.77 1008 10 16.09344 0 0
9:35 pm 21:35 Clear 71 21.6 67 19.7 89 89 E 13 20 29.8 1009 10 16.09344 0 0
9:55 pm 21:55 Clear 70 21.3 67 19.7 91 91 E 9 15 29.8 1009 10 16.09344 0 0
10:15 pm 22:15 Clear 70 21 67 19.6 92 92 E 12 19 29.8 1009 10 16.09344 0 0
10:35 pm 22:35 Clear 69 20.6 67 19.6 94 94 E 10 17 29.8 1009 10 16.09344 0 0
10:55 pm 22:55 Clear 68 20.2 67 19.5 96 96 E 8 13 29.8 1009 10 16.09344 0 0
11:15 pm 23:15 Clear 68 20.1 67 19.5 96 96 E 8 13 29.8 1009 10 16.09344 0 0
11:35 pm 23:35 Clear 68 20.1 67 19.6 97 97 E 8 13 29.8 1009 10 16.09344 0 0
11:55 pm 23:55 Clear 68 20.1 67 19.7 98 98 E 10 17 29.8 1009 10 16.09344 0 0

Powered by AerisWeather